Location: ?????????
(54.7630°N, 39.4991°E)
Time: 21:36:23
(UTC+00:00)

COSMOS 2428 - Pass Details

Date: 14 April 2026
Orbit: 844 x 855 km, 70.9° (Epoch: 16 May)

Event Time Altitude Azimuth Distance (km) Brightness Sun altitude
Rises 17:11:46 0° 185° (S) 3,413 5.6 -7.2°
Reaches altitude 10° 17:14:20 10° 178° (S) 2,482 4.9 -7.5°
Maximum altitude 17:19:37 41° 110° (ESE) 1,227 3.1 -8.2°
Drops below altitude 10° 17:24:57 10° 43° (NE) 2,498 5.0 -8.9°
Sets 17:27:31 0° 36° (NE) 3,438 5.8 -9.2°
